Stations météo

réclame
Mon MeteoGroup
Vilhelmina, Suède (2245): Température de l'air & dewpoint: 10.06.2019 01:00:00 - 16.06.2019 01:00:00 (CEST)Vilhelmina, Suède (2245): Vitesse du vent & gusts: 10.06.2019 01:00:00 - 16.06.2019 01:00:00 (CEST)Vilhelmina, Suède (2245): Direction du vent: 10.06.2019 01:00:00 - 16.06.2019 01:00:00 (CEST)Vilhelmina, Suède (2245): reduced air pressure: 10.06.2019 01:00:00 - 16.06.2019 01:00:00 (CEST)Vilhelmina, Suède (2245): visibility: 10.06.2019 01:00:00 - 16.06.2019 01:00:00 (CEST)
Date & Time tt [°C] td [°C] ff [km/h] ff [knt] fx [km/h] fx [knt] dd ppp [hPa] vv [km]
16.06.2019 01:00:00 9,8 8,6 0 0 3 2 N 1015,9 10
16.06.2019 00:00:00 11,9 9,6 0 0 8 5 N 1015,5 10
15.06.2019 23:00:00 15,9 10,0 8 4 22 12 WSW 1014,8 10
15.06.2019 22:00:00 18,8 10,4 13 7 19 10 WSW 1014,0 10
15.06.2019 21:00:00 20,7 9,6 9 5 18 10 WSW 1013,7 10
15.06.2019 20:00:00 22,4 8,1 9 5 21 11 W 1013,6 10
15.06.2019 19:00:00 22,7 8,0 13 7 19 11 WNW 1013,7 10
15.06.2019 18:00:00 23,1 7,6 11 6 19 10 WNW 1013,9 10
15.06.2019 17:00:00 22,9 7,8 8 4 22 12 - 1014,3 10
15.06.2019 16:00:00 22,4 8,1 9 5 19 11 WNW 1014,8 10
15.06.2019 15:00:00 21,7 7,9 5 3 19 10 W 1015,2 10
15.06.2019 14:00:00 20,8 8,8 5 3 19 10 - 1015,5 10
15.06.2019 13:00:00 19,7 9,6 8 4 14 7 W 1015,6 10
15.06.2019 12:00:00 19,8 10,2 8 4 17 9 W 1015,6 10
15.06.2019 11:00:00 18,5 10,3 13 7 17 9 W 1015,5 10
15.06.2019 10:00:00 16,6 10,7 8 4 13 7 W 1016,0 10
15.06.2019 09:00:00 13,7 10,1 8 4 9 5 W 1016,3 10
15.06.2019 08:00:00 12,2 9,9 4 2 10 5 - 1016,3 10
15.06.2019 07:00:00 11,4 9,7 5 3 9 5 W 1016,0 10
15.06.2019 06:00:00 10,8 9,6 5 3 7 4 SW 1016,1 10
15.06.2019 05:00:00 10,3 9,4 8 4 10 5 SSW 1016,2 10
15.06.2019 04:00:00 10,0 9,4 2 1 6 3 - 1016,2 10
15.06.2019 03:00:00 10,1 9,5 2 1 8 5 S 1016,3 10
15.06.2019 02:00:00 10,1 9,3 9 5 12 6 S 1016,3 10
15.06.2019 01:00:00 10,3 9,4 8 4 13 7 SSW 1016,4 10
15.06.2019 00:00:00 10,6 9,4 5 3 11 6 SSW 1016,4 10
14.06.2019 23:00:00 10,7 8,6 5 3 6 4 SSW 1016,2 10
14.06.2019 22:00:00 10,9 8,8 0 0 8 4 N 1016,0 10
14.06.2019 21:00:00 11,2 8,6 5 3 10 5 SSW 1016,2 10
14.06.2019 20:00:00 11,3 8,3 8 4 13 7 SW 1016,5 10
14.06.2019 19:00:00 11,3 8,2 11 6 - - SSW 1016,8 10
14.06.2019 18:00:00 11,8 8,5 8 4 16 9 SW 1017,0 10
14.06.2019 17:00:00 12,2 7,3 15 8 19 10 W 1017,3 10
14.06.2019 16:00:00 12,6 7,1 15 8 19 11 W 1017,5 10
14.06.2019 15:00:00 12,9 7,8 13 7 18 10 W 1018,0 10
14.06.2019 14:00:00 12,6 8,9 13 7 13 7 W 1018,2 10
14.06.2019 13:00:00 12,6 7,5 11 6 13 7 W 1018,6 10
14.06.2019 12:00:00 12,9 6,3 9 5 11 6 W 1018,6 10
14.06.2019 11:00:00 13,1 5,5 13 7 16 9 W 1018,9 10
14.06.2019 10:00:00 13,8 4,1 4 2 9 5 - 1019,0 10
14.06.2019 09:00:00 12,7 4,4 4 2 6 4 - 1019,3 10
14.06.2019 08:00:00 11,3 5,0 5 3 9 5 NNW 1019,7 10
14.06.2019 07:00:00 10,3 4,9 4 2 9 5 - 1019,9 10
14.06.2019 06:00:00 9,8 4,2 5 3 11 6 NNE 1019,8 10
14.06.2019 05:00:00 9,7 4,1 8 4 13 7 NNE 1019,9 10
14.06.2019 04:00:00 9,5 4,5 5 3 9 5 - 1020,1 10
14.06.2019 03:00:00 9,6 4,8 4 2 8 4 NNE 1020,4 10
14.06.2019 02:00:00 9,9 4,7 4 2 8 4 N 1020,5 10
14.06.2019 01:00:00 10,1 5,1 4 2 8 5 NE 1020,7 10
14.06.2019 00:00:00 10,5 4,8 8 4 15 8 ENE 1020,8 10
13.06.2019 23:00:00 10,8 4,7 9 5 18 10 E 1020,4 10
13.06.2019 22:00:00 11,2 5,1 11 6 21 11 ENE 1019,9 10
13.06.2019 21:00:00 11,1 5,0 11 6 24 13 E 1020,1 10
13.06.2019 20:00:00 11,2 4,4 13 7 27 15 E 1020,2 10
13.06.2019 19:00:00 11,3 2,8 16 9 26 14 E 1020,1 10
13.06.2019 18:00:00 12,1 3,1 13 7 23 13 ESE 1019,5 10
13.06.2019 17:00:00 12,5 3,4 15 8 29 16 E 1019,2 10
13.06.2019 16:00:00 12,8 3,2 18 10 30 16 E 1019,2 10
13.06.2019 15:00:00 13,0 3,1 21 11 33 18 E 1019,8 10
13.06.2019 14:00:00 13,5 3,6 18 10 32 18 E 1019,9 10
13.06.2019 13:00:00 13,9 4,2 21 11 39 21 E 1020,1 10
13.06.2019 12:00:00 13,7 4,3 24 13 40 22 ESE 1020,2 10
13.06.2019 11:00:00 13,0 4,7 24 13 35 19 E 1020,5 10
13.06.2019 10:00:00 12,0 4,7 13 7 21 11 E 1021,0 10
13.06.2019 09:00:00 10,6 3,6 13 7 - - ESE 1021,7 10
13.06.2019 08:00:00 9,8 3,3 13 7 18 10 E 1021,4 10
13.06.2019 07:00:00 9,2 2,3 9 5 19 10 E 1021,8 10
13.06.2019 06:00:00 8,5 1,6 4 2 9 5 ENE 1022,6 10
13.06.2019 05:00:00 7,8 1,0 8 4 10 5 E 1023,0 10
13.06.2019 04:00:00 7,7 0,9 4 2 19 10 - 1023,7 10
13.06.2019 03:00:00 7,9 1,1 11 6 16 9 E 1024,1 10
13.06.2019 02:00:00 8,1 0,8 13 7 20 11 ESE 1024,5 10
13.06.2019 01:00:00 8,3 0,3 13 7 18 10 ESE 1024,8 10
13.06.2019 00:00:00 9,1 0,3 13 7 20 11 ESE 1024,8 10
12.06.2019 23:00:00 9,7 0,3 11 6 25 14 E 1024,9 10
12.06.2019 22:00:00 10,8 -0,7 13 7 29 16 ESE 1024,9 10
12.06.2019 21:00:00 12,0 -0,9 21 11 32 18 ESE 1024,5 10
12.06.2019 20:00:00 13,1 -0,2 18 10 29 15 SE 1024,6 10
12.06.2019 19:00:00 14,1 -0,8 13 7 25 14 SE 1024,7 10
12.06.2019 18:00:00 14,1 -1,5 18 10 32 17 SSE 1024,9 10
12.06.2019 17:00:00 14,5 -0,4 13 7 27 14 SE 1025,1 10
12.06.2019 16:00:00 15,5 -1,1 8 4 27 15 - 1025,4 10
12.06.2019 15:00:00 14,8 -1,7 11 6 26 14 SSE 1026,2 10
12.06.2019 14:00:00 14,6 -1,1 13 7 30 16 S 1027,0 10
12.06.2019 13:00:00 14,1 -0,4 15 8 31 17 SSE 1027,9 10
12.06.2019 12:00:00 13,6 0,2 13 7 26 14 SE 1028,6 10
12.06.2019 11:00:00 12,4 0,8 9 5 28 15 SSW 1029,3 10
12.06.2019 10:00:00 11,6 1,0 11 6 32 17 S 1030,2 10
12.06.2019 09:00:00 10,3 2,4 8 4 18 10 SSW 1030,6 10
12.06.2019 08:00:00 8,5 2,1 11 6 19 10 S 1031,3 10
12.06.2019 07:00:00 7,2 2,1 13 7 16 9 SSE 1031,6 10
12.06.2019 06:00:00 6,3 2,2 8 4 12 6 SE 1031,7 10
12.06.2019 05:00:00 6,1 2,2 5 3 10 5 SE 1031,9 10
12.06.2019 04:00:00 4,5 3,5 4 2 7 4 - 1031,9 10
12.06.2019 03:00:00 1,9 1,3 0 0 3 2 N 1032,0 10
12.06.2019 02:00:00 2,6 2,0 0 0 3 2 N 1031,8 10
12.06.2019 01:00:00 3,2 2,0 0 0 5 3 N 1031,5 10
12.06.2019 00:00:00 5,2 3,5 0 0 5 3 N 1030,8 10
11.06.2019 23:00:00 8,7 3,1 8 4 - - E 1029,8 10
11.06.2019 22:00:00 9,9 3,6 9 5 16 9 E 1029,2 10
11.06.2019 21:00:00 10,7 3,5 13 7 21 12 E 1028,6 10
11.06.2019 20:00:00 12,1 3,8 11 6 25 14 E 1028,0 50
11.06.2019 19:00:00 12,2 3,7 9 5 21 12 E 1027,6 10
11.06.2019 18:00:00 13,2 3,8 13 7 23 12 E 1027,2 10
11.06.2019 17:00:00 12,5 4,2 11 6 20 11 NE 1027,0 10
11.06.2019 16:00:00 12,9 3,0 9 5 21 12 NNE 1026,5 10
11.06.2019 15:00:00 13,1 0,1 2 1 16 8 - 1026,2 10
11.06.2019 14:00:00 13,6 0,9 8 4 29 16 - 1026,1 10
11.06.2019 13:00:00 12,8 0,8 5 3 20 11 SSW 1026,2 10
11.06.2019 12:00:00 12,6 0,7 9 5 16 9 NW 1026,0 10
11.06.2019 11:00:00 11,7 1,0 2 1 18 10 - 1025,9 10
11.06.2019 10:00:00 11,2 1,7 5 3 17 9 - 1025,7 10
11.06.2019 09:00:00 8,9 1,8 5 3 11 6 W 1026,0 10
11.06.2019 08:00:00 8,3 2,1 5 3 12 7 - 1025,5 10
11.06.2019 07:00:00 7,7 2,0 5 3 11 6 WNW 1024,8 10
11.06.2019 06:00:00 6,9 1,8 2 1 - - - 1024,3 10
11.06.2019 05:00:00 6,6 2,3 5 3 9 5 - 1023,6 10
11.06.2019 04:00:00 6,5 2,6 5 3 8 4 - 1023,4 10
11.06.2019 03:00:00 6,6 2,5 5 3 13 7 W 1022,8 10
11.06.2019 02:00:00 7,0 1,9 8 4 16 9 NNW 1022,1 10
11.06.2019 01:00:00 7,2 2,5 8 4 14 8 NNW 1021,5 10
11.06.2019 00:00:00 8,2 3,5 8 4 15 8 NNW 1020,6 10
10.06.2019 23:00:00 8,7 3,7 11 6 23 13 W 1019,6 10
10.06.2019 22:00:00 10,2 4,1 16 9 33 18 W 1018,3 10
10.06.2019 21:00:00 11,1 3,9 26 14 43 23 W 1017,5 10
10.06.2019 20:00:00 11,7 4,0 22 12 35 19 W 1016,8 10
10.06.2019 19:00:00 12,1 4,1 21 11 41 22 W 1016,2 10
10.06.2019 18:00:00 12,6 3,8 28 15 41 22 W 1015,3 10
10.06.2019 17:00:00 14,1 4,1 29 16 52 28 W 1014,7 10
10.06.2019 16:00:00 13,3 3,9 26 14 47 26 WNW 1014,4 10
10.06.2019 15:00:00 13,6 3,7 29 16 48 26 W 1013,8 10
10.06.2019 14:00:00 14,0 3,7 28 15 52 28 WNW 1013,4 10
10.06.2019 13:00:00 13,8 4,1 31 17 52 28 W 1012,7 10
10.06.2019 12:00:00 13,9 3,9 31 17 52 28 W 1012,2 10
10.06.2019 11:00:00 12,5 4,5 31 17 49 26 WNW 1012,1 10
10.06.2019 10:00:00 12,4 5,1 31 17 58 32 W 1011,6 10
10.06.2019 09:00:00 12,1 4,6 39 21 59 32 W 1011,2 10
10.06.2019 08:00:00 11,7 6,6 24 13 39 21 WNW 1010,4 10
10.06.2019 07:00:00 12,3 7,8 18 10 28 15 W 1009,7 10
10.06.2019 06:00:00 12,3 8,0 16 9 26 14 W 1009,5 10
10.06.2019 05:00:00 11,5 8,5 5 3 12 7 - 1009,3 10
10.06.2019 04:00:00 9,6 8,2 5 3 7 4 S 1009,2 10
10.06.2019 03:00:00 10,4 8,8 2 1 8 4 - 1008,5 10
10.06.2019 02:00:00 10,7 8,6 5 3 13 7 - 1008,3 10
10.06.2019 01:00:00 10,9 8,3 5 3 15 8 SSW 1007,9 10

tt = Température de l'air
td = dewpoint
ff = Vitesse du vent
fx = gusts
dd = Direction du vent
ppp = reduced air pressure
vv = visibility

stations d'obs. à proximité